Regional Weather Roundup
Issued by NWS

Home | Current Version | Previous Version | Text Only | Print | Product List | Glossary Off
Versions: 1 2 3 4 5 6 7 8 9 10 11 12 13 14 15 16 17 18 19 20 21 22 23 24 25 26 27 28 29 30 31 32 33 34 35 36 37 38 39 40 41 42 43 44 45 46 47 48 49 50

000
ASUS43 KBIS 230910
RWRND

NORTH DAKOTA REGIONAL WEATHER ROUNDUP
NATIONAL WEATHER SERVICE BISMARCK ND
400 AM CDT SUN JUL 23 2017

NOTE: "FAIR" INDICATES FEW OR NO CLOUDS BELOW 12,000 FEET WITH NO
SIGNIFICANT WEATHER AND/OR OBSTRUCTIONS TO VISIBILITY.


NDZ001>003-009>011-017-231000-
NORTHWEST NORTH DAKOTA

CITY           SKY/WX    TMP DP  RH WIND       PRES   REMARKS
WILLISTON      CLEAR     57  52  83 CALM      30.05S
MINOT          CLEAR     57  53  86 W6        30.02S
MINOT AFB      CLEAR     50  49  95 W6        30.02R
$$

NDZ018>021-031>035-040>046-231000-
SOUTHWEST NORTH DAKOTA

CITY           SKY/WX    TMP DP  RH WIND       PRES   REMARKS
BISMARCK       CLEAR     61  56  83 NW5       30.04S
DICKINSON      CLEAR     54  51  90 S6        30.07R
GARRISON         N/A     54  52  93 NW6       30.04S
HETTINGER ARPT PTCLDY    54  49  83 CALM      30.11R
$$

NDZ004>008-012>016-024-026-027-054-231000-
NORTHEAST NORTH DAKOTA

CITY           SKY/WX    TMP DP  RH WIND       PRES   REMARKS
GRAND FORKS    CLOUDY    64  62  93 N10       29.91S
GRND FRKS AFB  CLOUDY    63  60  91 N9        29.93R
DEVILS LAKE    CLEAR     58  57  97 NW6       29.99S
$$

NDZ022-023-025-028>030-036>039-047>053-231000-
SOUTHEAST NORTH DAKOTA

CITY           SKY/WX    TMP DP  RH WIND       PRES   REMARKS
FARGO          CLEAR     59  57  93 W5        29.92R
JAMESTOWN      CLEAR     59  56  89 NW7       29.98R
$$




USA.gov is the U.S. government's official web portal to all federal, state and local government web resources and services.